Powrót do katalogu

FENGYUN 1C DEB

AktywnySSO
NORAD 30152·DEBRIS·🇨🇳 China

Wystrzelony May 10, 1999 z Taiyuan Satellite Launch Center

Loading…

Następne Przeloty (najbliższe 24 godziny)

TLE

ŚwieżeSource: Space-Track

Epoka: Sep 14, 2026, 00:50 UTC

1 30152U 99025TH  26257.03484591  .00002145  00000-0  13696-2 0  9991
2 30152  99.0785 116.7581 0164848  49.4710 312.0679 13.98127415992230

Śledź FENGYUN 1C DEB w czasie rzeczywistym z AllMySat

Download on the App Store